Year,Month,Day,Hour,Minute,Value (Times are PST for temperature in C)
2015,06,23,00,00,16.70
2015,06,23,00,01,16.70
2015,06,23,00,02,16.60
2015,06,23,00,03,16.50
2015,06,23,00,04,16.70
2015,06,23,00,05,16.80
2015,06,23,00,06,16.90
2015,06,23,00,07,16.90
2015,06,23,00,08,16.80
2015,06,23,00,09,16.80
2015,06,23,00,10,16.90
2015,06,23,00,11,17.20
2015,06,23,00,12,17.50
2015,06,23,00,13,17.80
2015,06,23,00,14,17.90
2015,06,23,00,15,18.00
2015,06,23,00,16,18.00
2015,06,23,00,17,18.00
2015,06,23,00,18,18.10
2015,06,23,00,19,18.20
2015,06,23,00,20,18.20
2015,06,23,00,21,18.10
2015,06,23,00,22,18.10
2015,06,23,00,23,18.10
2015,06,23,00,24,18.20
2015,06,23,00,25,18.20
2015,06,23,00,26,18.30
2015,06,23,00,27,18.40
2015,06,23,00,28,18.50
2015,06,23,00,29,18.70
2015,06,23,00,30,18.70
2015,06,23,00,31,18.70
2015,06,23,00,32,18.60
2015,06,23,00,33,18.50
2015,06,23,00,34,18.40
2015,06,23,00,35,18.40
2015,06,23,00,36,18.40
2015,06,23,00,37,18.40
2015,06,23,00,38,18.50
2015,06,23,00,39,18.50
2015,06,23,00,40,18.60
2015,06,23,00,41,18.60
2015,06,23,00,42,18.60
2015,06,23,00,43,18.60
2015,06,23,00,44,18.50
2015,06,23,00,45,18.50
2015,06,23,00,46,18.30
2015,06,23,00,47,18.10
2015,06,23,00,48,18.00
2015,06,23,00,49,17.90
2015,06,23,00,50,17.80
2015,06,23,00,51,17.70
2015,06,23,00,52,17.60
2015,06,23,00,53,17.50
2015,06,23,00,54,17.30
2015,06,23,00,55,17.20
2015,06,23,00,56,16.90
2015,06,23,00,57,16.60
2015,06,23,00,58,16.20
2015,06,23,00,59,16.20
2015,06,23,01,00,16.20
2015,06,23,01,01,16.10
2015,06,23,01,02,15.90
2015,06,23,01,03,15.80
2015,06,23,01,04,15.70
2015,06,23,01,05,15.70
2015,06,23,01,06,15.90
2015,06,23,01,07,16.30
2015,06,23,01,08,16.50
2015,06,23,01,09,16.50
2015,06,23,01,10,16.60
2015,06,23,01,11,16.50
2015,06,23,01,12,16.30
2015,06,23,01,13,16.20
2015,06,23,01,14,16.40
2015,06,23,01,15,16.50
2015,06,23,01,16,16.70
2015,06,23,01,17,16.70
2015,06,23,01,18,16.70
2015,06,23,01,19,16.80
2015,06,23,01,20,16.80
2015,06,23,01,21,16.90
2015,06,23,01,22,16.80
2015,06,23,01,23,16.70
2015,06,23,01,24,16.50
2015,06,23,01,25,16.30
2015,06,23,01,26,16.10
2015,06,23,01,27,16.00
2015,06,23,01,28,15.80
2015,06,23,01,29,15.70
2015,06,23,01,30,15.60
2015,06,23,01,31,15.50
2015,06,23,01,32,15.40
2015,06,23,01,33,15.20
2015,06,23,01,34,15.10
2015,06,23,01,35,15.00
2015,06,23,01,36,14.90
2015,06,23,01,37,14.80
2015,06,23,01,38,14.80
2015,06,23,01,39,14.80
2015,06,23,01,40,14.80
2015,06,23,01,41,14.80
2015,06,23,01,42,14.70
2015,06,23,01,43,14.60
2015,06,23,01,44,14.50
2015,06,23,01,45,14.50
2015,06,23,01,46,14.40
2015,06,23,01,47,14.30
2015,06,23,01,48,14.20
2015,06,23,01,49,14.10
2015,06,23,01,50,14.10
2015,06,23,01,51,14.00
2015,06,23,01,52,14.00
2015,06,23,01,53,14.10
2015,06,23,01,54,14.10
2015,06,23,01,55,14.20
2015,06,23,01,56,14.20
2015,06,23,01,57,14.30
2015,06,23,01,58,14.30
2015,06,23,01,59,14.30
2015,06,23,02,00,14.30
2015,06,23,02,01,14.30
2015,06,23,02,02,14.30
2015,06,23,02,03,14.20
2015,06,23,02,04,14.20
2015,06,23,02,05,14.30
2015,06,23,02,06,14.50
2015,06,23,02,07,14.70
2015,06,23,02,08,14.80
2015,06,23,02,09,14.80
2015,06,23,02,10,14.90
2015,06,23,02,11,14.90
2015,06,23,02,12,15.00
2015,06,23,02,13,15.00
2015,06,23,02,14,14.90
2015,06,23,02,15,14.80
2015,06,23,02,16,14.70
2015,06,23,02,17,14.90
2015,06,23,02,18,14.90
2015,06,23,02,19,14.80
2015,06,23,02,20,14.60
2015,06,23,02,21,14.50
2015,06,23,02,22,14.50
2015,06,23,02,23,14.40
2015,06,23,02,24,14.30
2015,06,23,02,25,14.20
2015,06,23,02,26,14.20
2015,06,23,02,27,14.20
2015,06,23,02,28,14.20
2015,06,23,02,29,14.10
2015,06,23,02,30,13.90
2015,06,23,02,31,13.80
2015,06,23,02,32,13.70
2015,06,23,02,33,13.60
2015,06,23,02,34,13.70
2015,06,23,02,35,13.80
2015,06,23,02,36,13.80
2015,06,23,02,37,13.70
2015,06,23,02,38,13.60
2015,06,23,02,39,13.40
2015,06,23,02,40,13.30
2015,06,23,02,41,13.20
2015,06,23,02,42,13.10
2015,06,23,02,43,13.00
2015,06,23,02,44,12.90
2015,06,23,02,45,12.90
2015,06,23,02,46,12.80
2015,06,23,02,47,12.70
2015,06,23,02,48,12.70
2015,06,23,02,49,12.70
2015,06,23,02,50,12.60
2015,06,23,02,51,12.50
2015,06,23,02,52,12.50
2015,06,23,02,53,12.50
2015,06,23,02,54,12.50
2015,06,23,02,55,12.40
2015,06,23,02,56,12.40
2015,06,23,02,57,12.40
2015,06,23,02,58,12.50
2015,06,23,02,59,12.70
2015,06,23,03,00,12.80
2015,06,23,03,01,12.90
2015,06,23,03,02,12.90
2015,06,23,03,03,13.10
2015,06,23,03,04,13.10
2015,06,23,03,05,13.10
2015,06,23,03,06,13.10
2015,06,23,03,07,13.10
2015,06,23,03,08,13.10
2015,06,23,03,09,13.10
2015,06,23,03,10,13.00
2015,06,23,03,11,12.90
2015,06,23,03,12,12.70
2015,06,23,03,13,12.60
2015,06,23,03,14,12.50
2015,06,23,03,15,12.30
2015,06,23,03,16,12.20
2015,06,23,03,17,12.10
2015,06,23,03,18,12.00
2015,06,23,03,19,11.90
2015,06,23,03,20,11.80
2015,06,23,03,21,11.80
2015,06,23,03,22,11.80
2015,06,23,03,23,11.80
2015,06,23,03,24,11.80
2015,06,23,03,25,11.70
2015,06,23,03,26,11.70
2015,06,23,03,27,11.70
2015,06,23,03,28,11.70
2015,06,23,03,29,11.70
2015,06,23,03,30,11.70
2015,06,23,03,31,11.70
2015,06,23,03,32,11.70
2015,06,23,03,33,11.70
2015,06,23,03,34,11.70
2015,06,23,03,35,11.80
2015,06,23,03,36,12.00
2015,06,23,03,37,12.10
2015,06,23,03,38,12.30
2015,06,23,03,39,12.40
2015,06,23,03,40,12.50
2015,06,23,03,41,12.50
2015,06,23,03,42,12.60
2015,06,23,03,43,12.60
2015,06,23,03,44,12.70
2015,06,23,03,45,12.70
2015,06,23,03,46,12.70
2015,06,23,03,47,12.70
2015,06,23,03,48,12.80
2015,06,23,03,49,12.80
2015,06,23,03,50,12.80
2015,06,23,03,51,12.80
2015,06,23,03,52,12.80
2015,06,23,03,53,12.80
2015,06,23,03,54,12.80
2015,06,23,03,55,12.90
2015,06,23,03,56,12.80
2015,06,23,03,57,12.80
2015,06,23,03,58,12.80
2015,06,23,03,59,12.80
2015,06,23,04,00,12.80
2015,06,23,04,01,12.80
2015,06,23,04,02,12.80
2015,06,23,04,03,12.80
2015,06,23,04,04,12.80
2015,06,23,04,05,12.80
2015,06,23,04,06,12.80
2015,06,23,04,07,12.80
2015,06,23,04,08,12.80
2015,06,23,04,09,12.70
2015,06,23,04,10,12.70
2015,06,23,04,11,12.70
2015,06,23,04,12,12.70
2015,06,23,04,13,12.70
2015,06,23,04,14,12.70
2015,06,23,04,15,12.60
2015,06,23,04,16,12.60
2015,06,23,04,17,12.60
2015,06,23,04,18,12.60
2015,06,23,04,19,12.60
2015,06,23,04,20,12.60
2015,06,23,04,21,12.60
2015,06,23,04,22,12.60
2015,06,23,04,23,12.50
2015,06,23,04,24,12.50
2015,06,23,04,25,12.50
2015,06,23,04,26,12.50
2015,06,23,04,27,12.50
2015,06,23,04,28,12.40
2015,06,23,04,29,12.40
2015,06,23,04,30,12.30
2015,06,23,04,31,12.30
2015,06,23,04,32,12.30
2015,06,23,04,33,12.20
2015,06,23,04,34,12.20
2015,06,23,04,35,12.20
2015,06,23,04,36,12.10
2015,06,23,04,37,12.10
2015,06,23,04,38,12.00
2015,06,23,04,39,12.00
2015,06,23,04,40,12.00
2015,06,23,04,41,12.00
2015,06,23,04,42,12.10
2015,06,23,04,43,12.10
2015,06,23,04,44,12.10
2015,06,23,04,45,12.20
2015,06,23,04,46,12.20
2015,06,23,04,47,12.20
2015,06,23,04,48,12.20
2015,06,23,04,49,12.20
2015,06,23,04,50,12.20
2015,06,23,04,51,12.20
2015,06,23,04,52,12.20
2015,06,23,04,53,12.20
2015,06,23,04,54,12.20
2015,06,23,04,55,12.20
2015,06,23,04,56,12.10
2015,06,23,04,57,12.10
2015,06,23,04,58,12.10
2015,06,23,04,59,12.10
2015,06,23,05,00,12.10
2015,06,23,05,01,12.10
2015,06,23,05,02,12.10
2015,06,23,05,03,12.00
2015,06,23,05,04,12.00
2015,06,23,05,05,12.00
2015,06,23,05,06,12.00
2015,06,23,05,07,12.00
2015,06,23,05,08,12.00
2015,06,23,05,09,11.90
2015,06,23,05,10,11.90
2015,06,23,05,11,11.90
2015,06,23,05,12,11.90
2015,06,23,05,13,11.80
2015,06,23,05,14,11.80
2015,06,23,05,15,11.80
2015,06,23,05,16,11.80
2015,06,23,05,17,11.80
2015,06,23,05,18,11.80
2015,06,23,05,19,11.80
2015,06,23,05,20,11.80
2015,06,23,05,21,11.80
2015,06,23,05,22,11.80
2015,06,23,05,23,11.90
2015,06,23,05,24,11.90
2015,06,23,05,25,11.90
2015,06,23,05,26,12.00
2015,06,23,05,27,12.00
2015,06,23,05,28,12.00
2015,06,23,05,29,12.10
2015,06,23,05,30,12.10
2015,06,23,05,31,12.10
2015,06,23,05,32,12.00
2015,06,23,05,33,12.00
2015,06,23,05,34,12.00
2015,06,23,05,35,12.00
2015,06,23,05,36,11.90
2015,06,23,05,37,11.90
2015,06,23,05,38,11.90
2015,06,23,05,39,11.90
2015,06,23,05,40,11.90
2015,06,23,05,41,11.80
2015,06,23,05,42,11.80
2015,06,23,05,43,11.80
2015,06,23,05,44,11.80
2015,06,23,05,45,11.80
2015,06,23,05,46,11.70
2015,06,23,05,47,11.70
2015,06,23,05,48,11.70
2015,06,23,05,49,11.70
2015,06,23,05,50,11.60
2015,06,23,05,51,11.60
2015,06,23,05,52,11.60
2015,06,23,05,53,11.50
2015,06,23,05,54,11.50
2015,06,23,05,55,11.50
2015,06,23,05,56,11.50
2015,06,23,05,57,11.50
2015,06,23,05,58,11.50
2015,06,23,05,59,11.50
2015,06,23,06,00,11.50
2015,06,23,06,01,11.50
2015,06,23,06,02,11.60
2015,06,23,06,03,11.60
2015,06,23,06,04,11.60
2015,06,23,06,05,11.60
2015,06,23,06,06,11.60
2015,06,23,06,07,11.70
2015,06,23,06,08,11.70
2015,06,23,06,09,11.70
2015,06,23,06,10,11.70
2015,06,23,06,11,11.70
2015,06,23,06,12,11.70
2015,06,23,06,13,11.80
2015,06,23,06,14,11.80
2015,06,23,06,15,11.80
2015,06,23,06,16,11.80
2015,06,23,06,17,11.70
2015,06,23,06,18,11.50
2015,06,23,06,19,11.40
2015,06,23,06,20,11.30
2015,06,23,06,21,11.20
2015,06,23,06,22,11.10
2015,06,23,06,23,11.10
2015,06,23,06,24,11.00
2015,06,23,06,25,11.00
2015,06,23,06,26,10.90
2015,06,23,06,27,10.80
2015,06,23,06,28,10.80
2015,06,23,06,29,10.70
2015,06,23,06,30,10.70
2015,06,23,06,31,10.70
2015,06,23,06,32,10.60
2015,06,23,06,33,10.60
2015,06,23,06,34,10.60
2015,06,23,06,35,10.60
2015,06,23,06,36,10.50
2015,06,23,06,37,10.50
2015,06,23,06,38,10.50
2015,06,23,06,39,10.40
2015,06,23,06,40,10.40
2015,06,23,06,41,10.40
2015,06,23,06,42,10.40
2015,06,23,06,43,10.40
2015,06,23,06,44,10.40
2015,06,23,06,45,10.40
2015,06,23,06,46,10.40
2015,06,23,06,47,10.40
2015,06,23,06,48,10.50
2015,06,23,06,49,10.60
2015,06,23,06,50,10.70
2015,06,23,06,51,10.80
2015,06,23,06,52,11.00
2015,06,23,06,53,11.10
2015,06,23,06,54,11.30
2015,06,23,06,55,11.40
2015,06,23,06,56,11.60
2015,06,23,06,57,11.70
2015,06,23,06,58,11.80
2015,06,23,06,59,11.90
2015,06,23,07,00,12.00
2015,06,23,07,01,12.10
2015,06,23,07,02,12.20
2015,06,23,07,03,12.20
2015,06,23,07,04,12.30
2015,06,23,07,05,12.30
2015,06,23,07,06,12.30
2015,06,23,07,07,12.40
2015,06,23,07,08,12.40
2015,06,23,07,09,12.50
2015,06,23,07,10,12.60
2015,06,23,07,11,12.60
2015,06,23,07,12,12.60
2015,06,23,07,13,12.70
2015,06,23,07,14,12.70
2015,06,23,07,15,12.70
2015,06,23,07,16,12.70
2015,06,23,07,17,12.80
2015,06,23,07,18,12.80
2015,06,23,07,19,12.80
2015,06,23,07,20,12.80
2015,06,23,07,21,12.80
2015,06,23,07,22,12.80
2015,06,23,07,23,12.80
2015,06,23,07,24,12.90
2015,06,23,07,25,12.90
2015,06,23,07,26,12.90
2015,06,23,07,27,12.90
2015,06,23,07,28,12.90
2015,06,23,07,29,12.80
2015,06,23,07,30,12.80
2015,06,23,07,31,12.80
2015,06,23,07,32,12.80
2015,06,23,07,33,12.80
2015,06,23,07,34,12.80
2015,06,23,07,35,12.80
2015,06,23,07,36,12.80
2015,06,23,07,37,12.80
2015,06,23,07,38,12.80
2015,06,23,07,39,12.80
2015,06,23,07,40,12.80
2015,06,23,07,41,12.90
2015,06,23,07,42,12.90
2015,06,23,07,43,12.90
2015,06,23,07,44,12.90
2015,06,23,07,45,12.90
2015,06,23,07,46,12.90
2015,06,23,07,47,13.00
2015,06,23,07,48,13.00
2015,06,23,07,49,13.00
2015,06,23,07,50,13.10
2015,06,23,07,51,13.10
2015,06,23,07,52,13.10
2015,06,23,07,53,13.20
2015,06,23,07,54,13.20
2015,06,23,07,55,13.30
2015,06,23,07,56,13.30
2015,06,23,07,57,13.30
2015,06,23,07,58,13.40
2015,06,23,07,59,13.40
2015,06,23,08,00,13.50
2015,06,23,08,01,13.50
2015,06,23,08,02,13.60
2015,06,23,08,03,13.60
2015,06,23,08,04,13.70
2015,06,23,08,05,13.70
2015,06,23,08,06,13.70
2015,06,23,08,07,13.70
2015,06,23,08,08,13.80
2015,06,23,08,09,13.80
2015,06,23,08,10,13.80
2015,06,23,08,11,13.90
2015,06,23,08,12,13.90
2015,06,23,08,13,14.00
2015,06,23,08,14,14.10
2015,06,23,08,15,14.20
2015,06,23,08,16,14.30
2015,06,23,08,17,14.30
2015,06,23,08,18,14.40
2015,06,23,08,19,14.40
2015,06,23,08,20,14.50
2015,06,23,08,21,14.50
2015,06,23,08,22,14.60
2015,06,23,08,23,14.60
2015,06,23,08,24,14.70
2015,06,23,08,25,14.70
2015,06,23,08,26,14.70
2015,06,23,08,27,14.70
2015,06,23,08,28,14.70
2015,06,23,08,29,14.70
2015,06,23,08,30,14.70
2015,06,23,08,31,14.70
2015,06,23,08,32,14.70
2015,06,23,08,33,14.70
2015,06,23,08,34,14.70
2015,06,23,08,35,14.80
2015,06,23,08,36,14.80
2015,06,23,08,37,14.80
2015,06,23,08,38,14.80
2015,06,23,08,39,14.80
2015,06,23,08,40,14.80
2015,06,23,08,41,14.90
2015,06,23,08,42,14.90
2015,06,23,08,43,14.90
2015,06,23,08,44,14.90
2015,06,23,08,45,15.00
2015,06,23,08,46,15.00
2015,06,23,08,47,15.10
2015,06,23,08,48,15.20
2015,06,23,08,49,15.30
2015,06,23,08,50,15.30
2015,06,23,08,51,15.40
2015,06,23,08,52,15.40
2015,06,23,08,53,15.50
2015,06,23,08,54,15.50
2015,06,23,08,55,15.60
2015,06,23,08,56,15.60
2015,06,23,08,57,15.70
2015,06,23,08,58,15.70
2015,06,23,08,59,15.80
2015,06,23,09,00,15.80
2015,06,23,09,01,15.90
2015,06,23,09,02,15.90
2015,06,23,09,03,16.00
2015,06,23,09,04,16.10
2015,06,23,09,05,16.10
2015,06,23,09,06,16.20
2015,06,23,09,07,16.20
2015,06,23,09,08,16.20
2015,06,23,09,09,16.20
2015,06,23,09,10,16.30
2015,06,23,09,11,16.30
2015,06,23,09,12,16.40
2015,06,23,09,13,16.50
2015,06,23,09,14,16.50
2015,06,23,09,15,16.60
2015,06,23,09,16,16.70
2015,06,23,09,17,16.80
2015,06,23,09,18,16.90
2015,06,23,09,19,16.90
2015,06,23,09,20,17.00
2015,06,23,09,21,17.10
2015,06,23,09,22,17.20
2015,06,23,09,23,17.30
2015,06,23,09,24,17.30
2015,06,23,09,25,17.30
2015,06,23,09,26,17.30
2015,06,23,09,27,17.30
2015,06,23,09,28,17.30
2015,06,23,09,29,17.40
2015,06,23,09,30,17.40
2015,06,23,09,31,17.50
2015,06,23,09,32,17.60
2015,06,23,09,33,17.60
2015,06,23,09,34,17.70
2015,06,23,09,35,17.70
2015,06,23,09,36,17.70
2015,06,23,09,37,17.70
2015,06,23,09,38,17.70
2015,06,23,09,39,17.60
2015,06,23,09,40,17.70
2015,06,23,09,41,17.80
2015,06,23,09,42,17.90
2015,06,23,09,43,18.00
2015,06,23,09,44,18.10
2015,06,23,09,45,18.20
2015,06,23,09,46,18.20
2015,06,23,09,47,18.30
2015,06,23,09,48,18.40
2015,06,23,09,49,18.40
2015,06,23,09,50,18.40
2015,06,23,09,51,18.50
2015,06,23,09,52,18.60
2015,06,23,09,53,18.70
2015,06,23,09,54,18.80
2015,06,23,09,55,18.90
2015,06,23,09,56,19.10
2015,06,23,09,57,19.20
2015,06,23,09,58,19.20
2015,06,23,09,59,19.10
2015,06,23,10,00,19.20
2015,06,23,10,01,19.10
2015,06,23,10,02,19.00
2015,06,23,10,03,18.90
2015,06,23,10,04,18.90
2015,06,23,10,05,18.90
2015,06,23,10,06,19.00
2015,06,23,10,07,18.90
2015,06,23,10,08,18.90
2015,06,23,10,09,18.90
2015,06,23,10,10,18.90
2015,06,23,10,11,18.90
2015,06,23,10,12,18.80
2015,06,23,10,13,18.70
2015,06,23,10,14,18.70
2015,06,23,10,15,18.80
2015,06,23,10,16,18.90
2015,06,23,10,17,18.90
2015,06,23,10,18,19.00
2015,06,23,10,19,19.10
2015,06,23,10,20,19.20
2015,06,23,10,21,19.20
2015,06,23,10,22,19.20
2015,06,23,10,23,19.20
2015,06,23,10,24,19.20
2015,06,23,10,25,19.20
2015,06,23,10,26,19.20
2015,06,23,10,27,19.20
2015,06,23,10,28,19.30
2015,06,23,10,29,19.30
2015,06,23,10,30,19.40
2015,06,23,10,31,19.60
2015,06,23,10,32,19.70
2015,06,23,10,33,19.70
2015,06,23,10,34,19.70
2015,06,23,10,35,19.70
2015,06,23,10,36,19.70
2015,06,23,10,37,19.80
2015,06,23,10,38,19.80
2015,06,23,10,39,19.80
2015,06,23,10,40,19.80
2015,06,23,10,41,19.90
2015,06,23,10,42,19.90
2015,06,23,10,43,19.80
2015,06,23,10,44,19.70
2015,06,23,10,45,19.60
2015,06,23,10,46,19.40
2015,06,23,10,47,19.30
2015,06,23,10,48,19.30
2015,06,23,10,49,19.20
2015,06,23,10,50,19.20
2015,06,23,10,51,19.10
2015,06,23,10,52,19.10
2015,06,23,10,53,19.10
2015,06,23,10,54,19.10
2015,06,23,10,55,19.10
2015,06,23,10,56,19.10
2015,06,23,10,57,19.20
2015,06,23,10,58,19.20
2015,06,23,10,59,19.30
2015,06,23,11,00,19.40
2015,06,23,11,01,19.50
2015,06,23,11,02,19.60
2015,06,23,11,03,19.60
2015,06,23,11,04,19.70
2015,06,23,11,05,19.70
2015,06,23,11,06,19.70
2015,06,23,11,07,19.60
2015,06,23,11,08,19.60
2015,06,23,11,09,19.70
2015,06,23,11,10,19.70
2015,06,23,11,11,19.60
2015,06,23,11,12,19.60
2015,06,23,11,13,19.50
2015,06,23,11,14,19.30
2015,06,23,11,15,19.20
2015,06,23,11,16,19.10
2015,06,23,11,17,19.20
2015,06,23,11,18,19.20
2015,06,23,11,19,19.20
2015,06,23,11,20,19.40
2015,06,23,11,21,19.60
2015,06,23,11,22,19.80
2015,06,23,11,23,19.90
2015,06,23,11,24,20.00
2015,06,23,11,25,20.00
2015,06,23,11,26,20.10
2015,06,23,11,27,20.20
2015,06,23,11,28,20.20
2015,06,23,11,29,20.20
2015,06,23,11,30,20.20
2015,06,23,11,31,20.20
2015,06,23,11,32,20.20
2015,06,23,11,33,20.20
2015,06,23,11,34,20.30
2015,06,23,11,35,20.30
2015,06,23,11,36,20.40
2015,06,23,11,37,20.40
2015,06,23,11,38,20.50
2015,06,23,11,39,20.60
2015,06,23,11,40,20.70
2015,06,23,11,41,20.70
2015,06,23,11,42,20.60
2015,06,23,11,43,20.60
2015,06,23,11,44,20.50
2015,06,23,11,45,20.40
2015,06,23,11,46,20.30
2015,06,23,11,47,20.30
2015,06,23,11,48,20.30
2015,06,23,11,49,20.40
2015,06,23,11,50,20.50
2015,06,23,11,51,20.60
2015,06,23,11,52,20.70
2015,06,23,11,53,20.70
2015,06,23,11,54,20.60
2015,06,23,11,55,20.60
2015,06,23,11,56,20.70
2015,06,23,11,57,20.90
2015,06,23,11,58,20.90
2015,06,23,11,59,20.90
2015,06,23,12,00,20.90
2015,06,23,12,01,20.80
2015,06,23,12,02,20.80
2015,06,23,12,03,20.80
2015,06,23,12,04,20.80
2015,06,23,12,05,20.70
2015,06,23,12,06,20.70
2015,06,23,12,07,20.70
2015,06,23,12,08,20.70
2015,06,23,12,09,20.70
2015,06,23,12,10,20.60
2015,06,23,12,11,20.60
2015,06,23,12,12,20.70
2015,06,23,12,13,20.80
2015,06,23,12,14,20.80
2015,06,23,12,15,20.90
2015,06,23,12,16,20.90
2015,06,23,12,17,21.00
2015,06,23,12,18,21.00
2015,06,23,12,19,21.10
2015,06,23,12,20,21.10
2015,06,23,12,21,21.10
2015,06,23,12,22,21.20
2015,06,23,12,23,21.30
2015,06,23,12,24,21.20
2015,06,23,12,25,21.00
2015,06,23,12,26,21.00
2015,06,23,12,27,21.00
2015,06,23,12,28,21.10
2015,06,23,12,29,21.20
2015,06,23,12,30,21.30
2015,06,23,12,31,21.30
2015,06,23,12,32,21.30
2015,06,23,12,33,21.40
2015,06,23,12,34,21.40
2015,06,23,12,35,21.30
2015,06,23,12,36,21.40
2015,06,23,12,37,21.50
2015,06,23,12,38,21.50
2015,06,23,12,39,21.50
2015,06,23,12,40,21.40
2015,06,23,12,41,21.30
2015,06,23,12,42,21.30
2015,06,23,12,43,21.30
2015,06,23,12,44,21.30
2015,06,23,12,45,21.40
2015,06,23,12,46,21.50
2015,06,23,12,47,21.50
2015,06,23,12,48,21.40
2015,06,23,12,49,21.40
2015,06,23,12,50,21.50
2015,06,23,12,51,21.60
2015,06,23,12,52,21.70
2015,06,23,12,53,21.90
2015,06,23,12,54,22.00
2015,06,23,12,55,21.90
2015,06,23,12,56,21.80
2015,06,23,12,57,21.70
2015,06,23,12,58,21.80
2015,06,23,12,59,21.80
2015,06,23,13,00,21.80
2015,06,23,13,01,22.00
2015,06,23,13,02,22.00
2015,06,23,13,03,21.80
2015,06,23,13,04,21.70
2015,06,23,13,05,21.70
2015,06,23,13,06,21.80
2015,06,23,13,07,21.80
2015,06,23,13,08,21.90
2015,06,23,13,09,21.90
2015,06,23,13,10,21.80
2015,06,23,13,11,21.70
2015,06,23,13,12,21.60
2015,06,23,13,13,21.50
2015,06,23,13,14,21.40
2015,06,23,13,15,21.40
2015,06,23,13,16,21.50
2015,06,23,13,17,21.70
2015,06,23,13,18,21.80
2015,06,23,13,19,21.80
2015,06,23,13,20,21.90
2015,06,23,13,21,21.90
2015,06,23,13,22,21.90
2015,06,23,13,23,21.90
2015,06,23,13,24,21.90
2015,06,23,13,25,21.80
2015,06,23,13,26,21.80
2015,06,23,13,27,21.80
2015,06,23,13,28,21.90
2015,06,23,13,29,22.00
2015,06,23,13,30,22.00
2015,06,23,13,31,22.00
2015,06,23,13,32,22.00
2015,06,23,13,33,22.00
2015,06,23,13,34,22.00
2015,06,23,13,35,22.00
2015,06,23,13,36,21.90
2015,06,23,13,37,22.00
2015,06,23,13,38,22.10
2015,06,23,13,39,22.10
2015,06,23,13,40,22.10
2015,06,23,13,41,22.10
2015,06,23,13,42,22.10
2015,06,23,13,43,22.00
2015,06,23,13,44,21.80
2015,06,23,13,45,21.70
2015,06,23,13,46,21.50
2015,06,23,13,47,21.40
2015,06,23,13,48,21.40
2015,06,23,13,49,21.30
2015,06,23,13,50,21.40
2015,06,23,13,51,21.30
2015,06,23,13,52,21.40
2015,06,23,13,53,21.40
2015,06,23,13,54,21.40
2015,06,23,13,55,21.40
2015,06,23,13,56,21.40
2015,06,23,13,57,21.50
2015,06,23,13,58,21.60
2015,06,23,13,59,21.70
2015,06,23,14,00,21.70
2015,06,23,14,01,21.70
2015,06,23,14,02,21.60
2015,06,23,14,03,21.60
2015,06,23,14,04,21.40
2015,06,23,14,05,21.30
2015,06,23,14,06,21.20
2015,06,23,14,07,21.20
2015,06,23,14,08,21.30
2015,06,23,14,09,21.40
2015,06,23,14,10,21.50
2015,06,23,14,11,21.50
2015,06,23,14,12,21.60
2015,06,23,14,13,21.70
2015,06,23,14,14,21.80
2015,06,23,14,15,21.80
2015,06,23,14,16,21.70
2015,06,23,14,17,21.80
2015,06,23,14,18,21.80
2015,06,23,14,19,21.70
2015,06,23,14,20,21.70
2015,06,23,14,21,21.70
2015,06,23,14,22,21.70
2015,06,23,14,23,21.70
2015,06,23,14,24,21.80
2015,06,23,14,25,21.90
2015,06,23,14,26,22.00
2015,06,23,14,27,22.20
2015,06,23,14,28,22.30
2015,06,23,14,29,22.30
2015,06,23,14,30,22.40
2015,06,23,14,31,22.40
2015,06,23,14,32,22.40
2015,06,23,14,33,22.40
2015,06,23,14,34,22.40
2015,06,23,14,35,22.30
2015,06,23,14,36,22.30
2015,06,23,14,37,22.40
2015,06,23,14,38,22.40
2015,06,23,14,39,22.50
2015,06,23,14,40,22.60
2015,06,23,14,41,22.60
2015,06,23,14,42,22.70
2015,06,23,14,43,22.80
2015,06,23,14,44,22.80
2015,06,23,14,45,22.80
2015,06,23,14,46,22.70
2015,06,23,14,47,22.60
2015,06,23,14,48,22.50
2015,06,23,14,49,22.50
2015,06,23,14,50,22.60
2015,06,23,14,51,22.70
2015,06,23,14,52,22.80
2015,06,23,14,53,22.90
2015,06,23,14,54,23.00
2015,06,23,14,55,23.20
2015,06,23,14,56,23.20
2015,06,23,14,57,23.10
2015,06,23,14,58,23.00
2015,06,23,14,59,22.80
2015,06,23,15,00,22.70
2015,06,23,15,01,22.60
2015,06,23,15,02,22.60
2015,06,23,15,03,22.50
2015,06,23,15,04,22.40
2015,06,23,15,05,22.20
2015,06,23,15,06,22.20
2015,06,23,15,07,22.10
2015,06,23,15,08,22.00
2015,06,23,15,09,21.90
2015,06,23,15,10,21.90
2015,06,23,15,11,21.80
2015,06,23,15,12,21.80
2015,06,23,15,13,21.80
2015,06,23,15,14,21.80
2015,06,23,15,15,21.80
2015,06,23,15,16,21.80
2015,06,23,15,17,21.90
2015,06,23,15,18,21.90
2015,06,23,15,19,21.90
2015,06,23,15,20,21.80
2015,06,23,15,21,21.90
2015,06,23,15,22,21.90
2015,06,23,15,23,21.90
2015,06,23,15,24,21.90
2015,06,23,15,25,21.80
2015,06,23,15,26,21.80
2015,06,23,15,27,21.90
2015,06,23,15,28,22.10
2015,06,23,15,29,22.20
2015,06,23,15,30,22.30
2015,06,23,15,31,22.30
2015,06,23,15,32,22.30
2015,06,23,15,33,22.30
2015,06,23,15,34,22.30
2015,06,23,15,35,22.30
2015,06,23,15,36,22.40
2015,06,23,15,37,22.50
2015,06,23,15,38,22.60
2015,06,23,15,39,22.70
2015,06,23,15,40,22.70
2015,06,23,15,41,22.70
2015,06,23,15,42,22.80
2015,06,23,15,43,22.80
2015,06,23,15,44,22.80
2015,06,23,15,45,22.80
2015,06,23,15,46,22.90
2015,06,23,15,47,22.90
2015,06,23,15,48,22.90
2015,06,23,15,49,23.00
2015,06,23,15,50,23.20
2015,06,23,15,51,23.40
2015,06,23,15,52,23.60
2015,06,23,15,53,23.70
2015,06,23,15,54,23.80
2015,06,23,15,55,23.90
2015,06,23,15,56,23.90
2015,06,23,15,57,23.80
2015,06,23,15,58,23.80
2015,06,23,15,59,23.90
2015,06,23,16,00,23.90
2015,06,23,16,01,24.00
2015,06,23,16,02,24.00
2015,06,23,16,03,23.90
2015,06,23,16,04,24.00
2015,06,23,16,05,24.10
2015,06,23,16,06,24.10
2015,06,23,16,07,24.00
2015,06,23,16,08,23.90
2015,06,23,16,09,23.90
2015,06,23,16,10,23.90
2015,06,23,16,11,23.90
2015,06,23,16,12,24.00
2015,06,23,16,13,24.00
2015,06,23,16,14,24.10
2015,06,23,16,15,24.10
2015,06,23,16,16,24.20
2015,06,23,16,17,24.20
2015,06,23,16,18,24.20
2015,06,23,16,19,24.20
2015,06,23,16,20,24.20
2015,06,23,16,21,24.10
2015,06,23,16,22,24.00
2015,06,23,16,23,23.90
2015,06,23,16,24,23.80
2015,06,23,16,25,23.70
2015,06,23,16,26,23.60
2015,06,23,16,27,23.60
2015,06,23,16,28,23.50
2015,06,23,16,29,23.50
2015,06,23,16,30,23.60
2015,06,23,16,31,23.60
2015,06,23,16,32,23.60
2015,06,23,16,33,23.60
2015,06,23,16,34,23.60
2015,06,23,16,35,23.60
2015,06,23,16,36,23.60
2015,06,23,16,37,23.60
2015,06,23,16,38,23.60
2015,06,23,16,39,23.50
2015,06,23,16,40,23.50
2015,06,23,16,41,23.50
2015,06,23,16,42,23.60
2015,06,23,16,43,23.50
2015,06,23,16,44,23.50
2015,06,23,16,45,23.40
2015,06,23,16,46,23.40
2015,06,23,16,47,23.30
2015,06,23,16,48,23.20
2015,06,23,16,49,23.20
2015,06,23,16,50,23.20
2015,06,23,16,51,23.20
2015,06,23,16,52,23.20
2015,06,23,16,53,23.20
2015,06,23,16,54,23.30
2015,06,23,16,55,23.30
2015,06,23,16,56,23.30
2015,06,23,16,57,23.30
2015,06,23,16,58,23.20
2015,06,23,16,59,23.30
2015,06,23,17,00,23.30
2015,06,23,17,01,23.30
2015,06,23,17,02,23.40
2015,06,23,17,03,23.40
2015,06,23,17,04,23.40
2015,06,23,17,05,23.40
2015,06,23,17,06,23.40
2015,06,23,17,07,23.40
2015,06,23,17,08,23.40
2015,06,23,17,09,23.30
2015,06,23,17,10,23.30
2015,06,23,17,11,23.20
2015,06,23,17,12,23.20
2015,06,23,17,13,23.20
2015,06,23,17,14,23.30
2015,06,23,17,15,23.40
2015,06,23,17,16,23.40
2015,06,23,17,17,23.40
2015,06,23,17,18,23.40
2015,06,23,17,19,23.50